Printer-friendly version

IAU Minor Planet Center

Minor Planet Center

MPEC 2005-V39 : 2005 VS

The following Minor Planet Electronic Circular may be linked-to from your own Web pages, but must not otherwise be redistributed electronically.


Read MPEC 2005-V38 Read MPEC 2005-V40


M.P.E.C. 2005-V39                                Issued 2005 Nov. 4, 16:12 UT

     The Minor Planet Electronic Circulars contain information on unusual
         minor planets and routine data on comets.  They are published
   on behalf of Commission 20 of the International Astronomical Union by the
          Minor Planet Center, Smithsonian Astrophysical Observatory,
                          Cambridge, MA 02138, U.S.A.

                  Supported in part by the Brinson Foundation
                  Supported in part by the TABASGO Foundation
             Prepared using the Tamkin Foundation Computer Network

                              MPC@CFA.HARVARD.EDU
          URL http://cfa-www.harvard.edu/iau/mpc.html  ISSN 1523-6714

                                    2005 VS

Observations:
     K05V00S* C2005 11 03.42339 08 20 23.71 +36 37 44.5          17.8 V EV039703
     K05V00S  C2005 11 03.43116 08 20 18.02 +36 35 53.9          17.9 V EV039703
     K05V00S  C2005 11 03.43892 08 20 12.44 +36 34 03.0          18.1 V EV039703
     K05V00S  C2005 11 03.44685 08 20 06.72 +36 32 10.1          18.2 V EV039703
     K05V00S  C2005 11 03.47107 08 19 48.97 +36 26 22.4          17.9 V EV039703
     K05V00S  C2005 11 03.47789 08 19 44.04 +36 24 44.3          18.0 V EV039703
     K05V00S  C2005 11 03.48470 08 19 39.00 +36 23 06.0          18.0 V EV039703
     K05V00S  C2005 11 04.06664 08 13 36.15 +34 01 14.8                 EV039J95
     K05V00S  C2005 11 04.06854 08 13 34.91 +34 00 48.2                 EV039J95
     K05V00S  C2005 11 04.06931 08 13 34.45 +34 00 37.2          18.5 R EV039J95
     K05V00S  C2005 11 04.36245 08 10 43.11 +32 51 36.2          18.5 R EV039854
     K05V00S  C2005 11 04.36533 08 10 41.27 +32 50 56.6          18.4 R EV039854
     K05V00S  C2005 11 04.36820 08 10 39.55 +32 50 16.9          18.5 R EV039854
     K05V00S  C2005 11 04.46432 08 09 38.34 +32 28 05.1          18.0 V EV039703
     K05V00S  C2005 11 04.46603 08 09 37.29 +32 27 41.5          18.0 V EV039703
     K05V00S  C2005 11 04.46774 08 09 36.14 +32 27 16.6          17.5 V EV039703
     K05V00S 5C2005 11 04.46933 08 09 36.33 +32 26 45.7          17.8 R EV039673
     K05V00S  C2005 11 04.46946 08 09 35.10 +32 26 54.8          17.8 V EV039703
     K05V00S 5C2005 11 04.47419 08 09 33.20 +32 25 37.6                 EV039673
     K05V00S 5C2005 11 04.48021 08 09 29.35 +32 24 13.7                 EV039673
     K05V00S 5C2005 11 04.48576 08 09 25.81 +32 22 56.3                 EV039673
     K05V00S  C2005 11 04.50106 08 09 14.65 +32 19 29.8          18.5 V EV039G96
     K05V00S  C2005 11 04.50148 08 09 14.36 +32 19 23.9          18.6 V EV039G96
     K05V00S  C2005 11 04.50191 08 09 14.07 +32 19 17.9          18.5 V EV039G96
     K05V00S  C2005 11 04.50234 08 09 13.82 +32 19 11.9          18.5 V EV039G96

Observer details:
673 Table Mountain Observatory, Wrightwood.  Observer J. Young.  0.6-m f/16
    Cassegrain + CCD.
703 Catalina Sky Survey.  Observer R. A. Kowalski.  Measurers E. C. Beshore,
    E. J. Christensen, G. J. Garradd, A. D. Grauer, R. E. Hill, R. A. Kowalski,
    S. M. Larson, R. H. McNaught.  0.68-m Schmidt + CCD.
854 Sabino Canyon Observatory, Tucson.  Observer J. E. McGaha.  0.36-m f/10.0
    Schmidt-Cassegrain + CCD.
G96 Mt. Lemmon Survey.  Observer R. Hill.  Measurers E. C. Beshore,
    E. J. Christensen, G. J. Garradd, A. D. Grauer, R. E. Hill, R. A. Kowalski,
    S. M. Larson, R. H. McNaught.  1.5-m reflector + CCD.
J95 Great Shefford.  Observer P. Birtwhistle.  0.40-m f/6.0 Schmidt-Cassegrain
    + CCD.

Orbital elements:
2005 VS
Epoch 2005 Oct. 17.0 TT = JDT 2453660.5                 MPC
M   3.41152              (2000.0)            P               Q
n   0.60988796     Peri.  149.36658     +0.94830388     -0.28909568
a   1.3771123      Node   228.03654     +0.24360660     +0.92750370
e   0.2884012      Incl.   10.14190     +0.20340988     +0.23698223
P   1.62           H   22.2           G   0.15
From 25 observations 2005 Nov. 3-4.

Ephemeris:
2005 VS                  a,e,i = 1.38, 0.29, 10                  q = 0.9800
Date    TT    R. A. (2000) Decl.     Delta      r     Elong.  Phase     V
2005 10 27    10 48.96   +63 23.3    0.0504   0.991    84.9    92.2    19.0
2005 11 06    07 56.19   +26 38.4    0.0517   1.008   107.6    69.6    18.2
2005 11 16    07 05.48   +00 51.0    0.0770   1.033   123.1    53.3    18.7
2005 11 26    06 38.44   -10 13.5    0.111    1.064   131.5    44.0    19.3
2005 12 06    06 18.50   -14 40.5    0.150    1.100   137.0    37.7    19.8
2005 12 16    06 03.24   -15 40.6    0.193    1.139   140.4    33.4    20.3
2005 12 26    05 52.57   -14 40.0    0.241    1.181   141.4    31.3    20.8
2006 01 05    05 46.72   -12 26.9    0.295    1.225   140.3    30.9    21.3
2006 01 15    05 45.82   -09 36.8    0.357    1.269   137.3    31.7    21.8

Timothy B. Spahr             (C) Copyright 2005 MPC           M.P.E.C. 2005-V39

Read MPEC 2005-V38 Read MPEC 2005-V40


Our Web policy. Index to the CBAT/MPC/ICQ pages.


Valid HTML 4.01!